SL-12 DEB

基本信息
目录编号:
41677
目录名称:
SL-12 DEB
国际标识:
2007-052J
轨道中心:
EARTH
物体状态:
在轨
发射日期:
2007-10-26 UTC
轨道信息
数据来源: 国际轨道数据
星历时间: 2026-07-13T14:00:52+0800
半长轴: 15758.017km
偏心率: 0.5617871
轨道倾角: 64.941°
近地点辐角: 225.314°
升交点赤经: 191.828°
平近点角: 72.335°
近地点: 527.229km
远地点: 18232.531km
周期: 328.104分钟
每日圈数: 4.388847
详细信息
发射场:
TTMTR
轨道高度:
LEO
数据来源:
AOE Integration Group
参考系:
TEME
时间系统:
UTC
历元类型:
SGP4
2D轨道图
3D轨道图
轨道高度分析图
轨道倾角分析图
轨道综合分析图
查看轨道综合分析图